Regional Weather Roundup
Issued by NWS Sterling, VA

Home | Current Version | Previous Version | Graphics & Text | Print | Product List | Glossary On
Versions: 1 2 3 4 5 6 7 8 9 10 11 12 13 14 15 16 17 18 19 20 21 22 23 24 25 26 27 28 29 30 31 32 33 34 35 36 37 38 39 40 41 42 43 44 45 46 47 48 49 50
000
ASUS41 KLWX 040610
RWRLWX

REGIONAL WEATHER ROUNDUP
NATIONAL WEATHER SERVICE BALTIMORE MD/WASHINGTON DC
100 AM EST SUN DEC 04 2016

Note: "FAIR" indicates few or no clouds below 12,000 feet
with no significant weather and/or obstructions to visibility.
 TC=TEMPERATURE CELSIUS

 * =Non NWS site. Station does not report precipitation (e.g. rain,
    snow, etc.), thunder, or fog.

DCZ001-MDZ009-015-VAZ040>042-051-053>054-040700-
WASHINGTON METRO

CITY           SKY/WX    TMP DP  RH WIND       PRES   REMARKS
WASHINGTON NAT CLOUDY    41  28  60 W7        30.29F
DULLES         PTCLDY    37  26  64 NW10      30.28F
ANDREWS AFB    MOCLDY    39  28  63 W8        30.27S
FT BELVOIR     CLEAR     34  28  77 NW3       30.28F
QUANTICO       CLEAR     36  26  67 NW7       30.31F
COLLEGE PARK*  CLOUDY    39  28  65 W7        30.27F
LEESBURG*      CLOUDY    37  32  81 W5        30.29F
MANASSAS*      CLEAR     36  28  75 NW6       30.29F
GAITHERSBURG*  CLOUDY    37  25  60 NW9       30.30F

$$

MDZ006>007-011-014-040700-
BALTIMORE METRO

CITY           SKY/WX    TMP DP  RH WIND       PRES   REMARKS
BWI AIRPORT    MOCLDY    41  30  65 W13       30.26S
MD SCIENCE CTR   N/A     43  28  55 MISG      30.26S
ANNAPOLIS      CLOUDY    44  30  57 W6        30.26F
FORT MEADE*    CLOUDY    39  30  70 W7        30.29S

$$

MDZ012-015-019>023-040700-
MARYLAND EASTERN SHORE

CITY           SKY/WX    TMP DP  RH WIND       PRES   REMARKS
OCEAN CITY     PTCLDY    39  30  70 W7        30.24F
SALISBURY      CLEAR     37  30  75 W6        30.25S
BAY BRIDGE AP* CLOUDY    43  30  61 W14       30.26S
CAMBRIDGE*     PTCLDY    39  32  75 NW6       30.26S
EASTON*        PTCLDY    43  31  63 NW9       30.29S

$$

MDZ017>025-040700-
SOUTHERN MARYLAND

CITY           SKY/WX    TMP DP  RH WIND       PRES   REMARKS
PATUXENT RIVER PTCLDY    40  29  64 NW16      30.27F
ST INIGOES     PTCLDY    41  29  62 NW8       30.27S
LEONARDTOWN*   PTCLDY    37  28  70 NW6       30.29S

$$

MDZ003>005-040700-
NORTH CENTRAL MARYLAND

CITY           SKY/WX    TMP DP  RH WIND       PRES   REMARKS
FREDERICK*     CLOUDY    37  30  75 W8        30.30F
HAGERSTOWN APT CLOUDY    38  27  64 SW6       30.26F
WESTMINSTER*   CLOUDY    37  28  70 W7        30.23S

$$

MDZ501>502-040700-
WESTERN MARYLAND

CITY           SKY/WX    TMP DP  RH WIND       PRES   REMARKS
OAKLAND*       CLOUDY    27  23  86 CALM      30.19F
CUMBERLAND*    NOT AVBL

$$

VAZ025>031-040700-
SHENANDOAH VALLEY

CITY           SKY/WX    TMP DP  RH WIND       PRES   REMARKS
WINCHESTER*    CLOUDY    36  27  69 W8        30.28F
FRONT ROYAL*   FAIR      32  28  86 S5        30.29S
LURAY*         FAIR      30  30 100 CALM      30.29S
NEW MARKET*    FAIR      28  25  89 CALM      30.28F
STAUNTON*      CLOUDY    29  26  88 CALM      30.29F
WAYNESBORO*    FAIR      30  26  85 CALM      30.26F

$$

WVZ021-048>050-054>055-040700-
EASTERN WEST VIRGINIA PANHANDLE

CITY           SKY/WX    TMP DP  RH WIND       PRES   REMARKS
MARTINSBURG    CLOUDY    37  27  67 W5        30.27F
PETERSBURG*    CLOUDY    29  26  88 CALM      30.30F

$$

VAZ036>039-050-040700-
CENTRAL FOOTHILLS

CITY           SKY/WX    TMP DP  RH WIND       PRES   REMARKS
CHARLOTTESVILL CLOUDY    37  26  64 CALM      30.28F
CULPEPER*      CLOUDY    35  27  73 CALM      30.30F
ORANGE*          N/A     36  28  75 CALM      30.31S
GORDONSVILLE*  FAIR      31  29  93 CALM      30.29F
WARRENTON*     FAIR      27  22  79 CALM      30.29S

$$

VAZ055>057-040700-
NORTH AND CENTRAL PIEDMONT

CITY           SKY/WX    TMP DP  RH WIND       PRES   REMARKS
FREDERICKSBRG* PTCLDY    35  30  82 CALM      30.29F
STAFFORD*      CLEAR     31  28  86 NW5       30.33F

$$

NCZ024-NYZ072-PAZ021-071-VAZ022-071-040700-
OTHER REGIONAL OBSERVATIONS

CITY           SKY/WX    TMP DP  RH WIND       PRES   REMARKS
NEW YORK CITY  CLOUDY    42  25  50 NW7       30.20R
PHILADELPHIA   CLOUDY    46  30  53 NW10      30.22R
PITTSBURGH     CLOUDY    36  27  69 CALM      30.26F
ROANOKE        PTCLDY    37  27  67 N6        30.28F
RICHMOND       CLOUDY    36  27  69 NW5       30.30S
RALEIGH        CLOUDY    44  32  62 CALM      30.27F

$$

ANZ530>537-040700-
MARINE OBSERVATIONS

STATION/POSITION TIME  TEMP    WIND        PRES
                       AIR SEA DIR/SP/G
                 (UTC) (F)     (DEG/KT/KT) (MB)
THOMAS PT LIGHT  0600   42 49  290/ 14/ 16   N/A
BALT KEY BRIDGE  0548   42     260/ 14/ 16 1024.6F
COVE POINT       0548   41     320/ 12/ 19 1025.6F
LEWISETTA        0548   43 49  350/ 10/ 13 1025.0S
SOLOMONS ISLAND  0536   41 51  310/  8/ 12   N/A
PINEY POINT      0548          350/ 16/ 17   N/A

$$




USA.gov is the U.S. government's official web portal to all federal, state and local government web resources and services.